| time (UTC) | temp F | wind direction | speed knots | gust knots | rain 1hr in | rain 24hr in | rain mn in | humidity % | barometer mb |
| 20260506044709 | 37 | 34 | 3.5 | 0.0 | 0.00 | 0.00 | 0.00 | 74 | 1011.6 |
| 20260506043109 | 0 | 0.0 | 0.0 | 0.00 | 0.00 | 0.00 | 1011.8 | ||
| 20260506041602 | 0 | 0.0 | 0.0 | 0.00 | 0.00 | 0.00 | 1011.8 | ||
| 20260506040050 | 0 | 0.0 | 0.0 | 0.00 | 0.00 | 0.00 | 1011.9 | ||
| 20260506034620 | 0 | 0.0 | 0.0 | 0.00 | 0.00 | 0.00 | 1011.9 | ||
| 20260506033041 | 0 | 0.0 | 0.0 | 0.00 | 0.00 | 0.00 | 1011.9 | ||
| 20260506031540 | 0 | 0.0 | 0.0 | 0.00 | 0.00 | 0.00 | 1011.9 | ||
| 20260506030032 | 0 | 0.0 | 0.0 | 0.00 | 0.00 | 0.00 | 1011.9 | ||
| 20260506024528 | 0 | 0.0 | 0.0 | 0.00 | 0.00 | 0.00 | 1011.9 | ||
| 20260506023022 | 0 | 0.0 | 0.0 | 0.00 | 0.00 | 0.00 | 1011.9 | ||
| 20260506021519 | 35 | 41 | 3.5 | 0.0 | 0.00 | 0.00 | 0.00 | 74 | 1011.9 |
| 20260506020016 | 35 | 44 | 3.5 | 0.0 | 0.00 | 0.00 | 0.00 | 74 | 1011.9 |
| 20260506014517 | 36 | 46 | 3.5 | 0.0 | 0.00 | 0.00 | 0.00 | 74 | 1011.7 |
| 20260506013013 | 35 | 35 | 2.6 | 0.0 | 0.00 | 0.00 | 0.00 | 75 | 1011.4 |
| 20260506011515 | 36 | 56 | 2.6 | 0.0 | 0.00 | 0.00 | 0.00 | 74 | 1011.5 |
| 20260506010013 | 37 | 55 | 3.5 | 0.0 | 0.00 | 0.00 | 0.00 | 74 | 1011.5 |
| 20260506004525 | 36 | 57 | 2.6 | 0.0 | 0.00 | 0.00 | 0.00 | 75 | 1011.7 |
| 20260506003010 | 36 | 51 | 2.6 | 0.0 | 0.00 | 0.00 | 0.00 | 76 | 1011.5 |
| 20260506001507 | 36 | 63 | 2.6 | 0.0 | 0.00 | 0.00 | 0.00 | 75 | 1011.5 |
| 20260506000004 | 36 | 26 | 3.5 | 0.0 | 0.00 | 0.00 | 0.00 | 74 | 1011.4 |
| 20260505234637 | 38 | 37 | 3.5 | 0.0 | 0.00 | 0.00 | 0.00 | 70 | 1011.6 |
| 20260505233107 | 39 | 5 | 3.5 | 0.0 | 0.00 | 0.00 | 0.00 | 69 | 1011.6 |
| 20260505231557 | 39 | 24 | 3.5 | 0.0 | 0.00 | 0.00 | 0.00 | 69 | 1011.6 |
| 20260505230051 | 39 | 32 | 2.6 | 0.0 | 0.00 | 0.00 | 0.00 | 70 | 1011.8 |
| 20260505224550 | 40 | 40 | 2.6 | 0.0 | 0.00 | 0.00 | 0.00 | 69 | 1011.7 |
| 20260505223050 | 41 | 22 | 2.6 | 0.0 | 0.00 | 0.00 | 0.00 | 67 | 1011.6 |
| 20260505221550 | 41 | 38 | 2.6 | 0.0 | 0.00 | 0.00 | 0.00 | 66 | 1011.8 |
| 20260505220101 | 40 | 31 | 2.6 | 0.0 | 0.00 | 0.00 | 0.00 | 67 | 1011.8 |
| 20260505214545 | 41 | 40 | 1.7 | 0.0 | 0.00 | 0.00 | 0.00 | 63 | 1011.9 |
| 20260505213043 | 43 | 15 | 2.6 | 0.0 | 0.00 | 0.00 | 0.00 | 61 | 1011.9 |
| 20260505211546 | 43 | 9 | 2.6 | 0.0 | 0.00 | 0.00 | 0.00 | 60 | 1011.7 |
| 20260505210040 | 43 | 349 | 0.9 | 0.0 | 0.00 | 0.00 | 0.00 | 57 | 1011.7 |
| 20260505204539 | 43 | 351 | 0.9 | 0.0 | 0.00 | 0.00 | 0.00 | 56 | 1011.6 |
| 20260505203038 | 43 | 336 | 1.7 | 0.0 | 0.00 | 0.00 | 0.00 | 56 | 1011.6 |
| 20260505201536 | 44 | 329 | 1.7 | 0.0 | 0.00 | 0.00 | 0.00 | 56 | 1011.5 |
| 20260505200034 | 45 | 5 | 1.7 | 0.0 | 0.00 | 0.00 | 0.00 | 55 | 1011.5 |
| 20260505194535 | 45 | 11 | 2.6 | 0.0 | 0.00 | 0.00 | 0.00 | 49 | 1011.4 |
| 20260505193038 | 46 | 355 | 2.6 | 0.0 | 0.00 | 0.00 | 0.00 | 45 | 1011.4 |
| 20260505191539 | 47 | 342 | 2.6 | 0.0 | 0.00 | 0.00 | 0.00 | 45 | 1011.3 |
| 20260505190027 | 48 | 339 | 2.6 | 0.0 | 0.00 | 0.00 | 0.00 | 43 | 1011.2 |
| 20260505184527 | 48 | 313 | 2.6 | 0.0 | 0.00 | 0.00 | 0.00 | 43 | 1011.1 |
| 20260505183029 | 49 | 315 | 1.7 | 0.0 | 0.00 | 0.00 | 0.00 | 45 | 1011.0 |
| 20260505181525 | 49 | 295 | 1.7 | 0.0 | 0.00 | 0.00 | 0.00 | 47 | 1011.0 |
| 20260505180040 | 50 | 309 | 3.5 | 0.0 | 0.00 | 0.00 | 0.00 | 44 | 1011.0 |
| 20260505174535 | 49 | 321 | 2.6 | 0.0 | 0.00 | 0.00 | 0.00 | 44 | 1010.9 |
| 20260505173024 | 49 | 308 | 2.6 | 0.0 | 0.00 | 0.00 | 0.00 | 44 | 1010.8 |
| 20260505171530 | 50 | 281 | 3.5 | 0.0 | 0.00 | 0.00 | 0.00 | 47 | 1010.8 |
| 20260505170028 | 51 | 289 | 4.3 | 0.0 | 0.00 | 0.00 | 0.00 | 46 | 1011.0 |
| 20260505164521 | 51 | 323 | 3.5 | 0.0 | 0.00 | 0.00 | 0.00 | 43 | 1011.0 |
| 20260505163022 | 51 | 348 | 4.3 | 0.0 | 0.00 | 0.00 | 0.00 | 38 | 1010.9 |
| 20260505161521 | 51 | 343 | 4.3 | 0.0 | 0.00 | 0.00 | 0.00 | 45 | 1010.9 |
| 20260505153022 | 52 | 355 | 5.2 | 0.0 | 0.00 | 0.00 | 0.00 | 50 | 1011.0 |
| 20260505151516 | 52 | 301 | 7.0 | 0.0 | 0.00 | 0.00 | 0.00 | 49 | 1011.1 |
| 20260505124509 | 55 | 321 | 9.6 | 0.0 | 0.00 | 0.00 | 0.00 | 52 | 1011.1 |
| 20260505123007 | 56 | 338 | 8.7 | 0.0 | 0.00 | 0.00 | 0.00 | 51 | 1011.2 |
| 20260505121509 | 56 | 323 | 8.7 | 0.0 | 0.00 | 0.00 | 0.00 | 51 | 1011.4 |
| 20260505120005 | 57 | 277 | 7.8 | 0.0 | 0.00 | 0.00 | 0.00 | 48 | 1011.2 |
| 20260505114504 | 58 | 299 | 7.0 | 0.0 | 0.00 | 0.00 | 0.00 | 46 | 1011.1 |
| 20260505113003 | 58 | 306 | 7.0 | 0.0 | 0.00 | 0.00 | 0.00 | 45 | 1011.1 |
| 20260505111503 | 59 | 325 | 7.0 | 0.0 | 0.00 | 0.00 | 0.00 | 47 | 1011.1 |
| 20260505101559 | 61 | 333 | 9.6 | 0.0 | 0.00 | 0.00 | 0.00 | 42 | 1011.2 |
| 20260505100058 | 63 | 293 | 7.0 | 0.0 | 0.00 | 0.00 | 0.00 | 41 | 1011.0 |
| 20260505094556 | 63 | 291 | 6.1 | 0.0 | 0.00 | 0.00 | 0.00 | 43 | 1010.9 |
| 20260505093055 | 63 | 292 | 6.1 | 0.0 | 0.00 | 0.00 | 0.00 | 41 | 1010.9 |
| 20260505091556 | 62 | 314 | 7.8 | 0.0 | 0.00 | 0.00 | 0.00 | 41 | 1010.9 |
| 20260505090059 | 62 | 288 | 8.7 | 0.0 | 0.00 | 0.00 | 0.00 | 42 | 1011.0 |
| 20260505084553 | 63 | 298 | 7.0 | 0.0 | 0.00 | 0.00 | 0.00 | 43 | 1010.9 |
| 20260505083102 | 63 | 304 | 7.0 | 0.0 | 0.00 | 0.00 | 0.00 | 40 | 1010.7 |
| 20260505081554 | 63 | 272 | 7.0 | 0.0 | 0.00 | 0.00 | 0.00 | 41 | 1010.5 |
| 20260505080047 | 62 | 307 | 7.0 | 0.0 | 0.00 | 0.00 | 0.00 | 44 | 1010.3 |
| 20260505074546 | 62 | 246 | 6.1 | 0.0 | 0.00 | 0.00 | 0.00 | 45 | 1010.2 |
| 20260505073044 | 62 | 316 | 7.0 | 0.0 | 0.00 | 0.00 | 0.00 | 46 | 1010.1 |
| 20260505071542 | 60 | 313 | 6.1 | 0.0 | 0.00 | 0.00 | 0.00 | 48 | 1010.1 |
| 20260505070045 | 59 | 288 | 5.2 | 0.0 | 0.00 | 0.00 | 0.00 | 50 | 1010.1 |
| 20260505064551 | 58 | 355 | 6.1 | 0.0 | 0.00 | 0.00 | 0.00 | 51 | 1009.9 |
| 20260505063031 | 57 | 302 | 6.1 | 0.0 | 0.00 | 0.00 | 0.00 | 56 | 1009.9 |
| 20260505061536 | 56 | 350 | 6.1 | 0.0 | 0.00 | 0.00 | 0.00 | 57 | 1009.8 |
| 20260505060027 | 54 | 313 | 7.0 | 0.0 | 0.00 | 0.00 | 0.00 | 62 | 1009.6 |